Regional Weather Roundup
Issued by NWS

Home | Current Version | Previous Version | Graphics & Text | Print | Product List | Glossary On
Versions: 1 2 3 4 5 6 7 8 9 10 11 12 13 14 15 16 17 18 19 20 21 22 23 24 25 26 27 28 29 30 31 32 33 34 35 36 37 38 39 40 41 42 43 44 45 46 47 48 49 50
000
ASUS44 KMEG 242210
RWRTN
TENNESSEE HOURLY STATE WEATHER ROUNDUP
NATIONAL WEATHER SERVICE MEMPHIS TN
400 PM CST WED DEC 24 2014

TNZ002-004-019-021-049-052-054-088>092-242300-
WEST TENNESSEE

CITY           SKY/WX    TMP DP  RH WIND       PRES   REMARKS
MEMPHIS INTL   CLOUDY    45  34  65 W8        29.84R
NWS MEMPHIS      N/A     44 N/A N/A MISG        N/A
JACKSON        CLOUDY    43  35  73 W10       29.81R
DYERSBURG      CLOUDY    43  28  56 W10       29.81R
UNION CITY     CLOUDY    39  37  93 SW7       29.77R WCI  34
PARIS          CLOUDY    39  36  87 W10       29.77R WCI  32
HUNTINGDON     CLOUDY    41  36  82 W10       29.78R
LEXINGTON      CLOUDY    45  39  81 W14       29.77R
SAVANNAH       MOCLDY    45  41  87 W7        29.80R
$$

TNZ008-025-027-028-033-062-065-066-242300-
NORTH MIDDLE TENNESSEE

CITY           SKY/WX    TMP DP  RH WIND       PRES   REMARKS
NASHVILLE      MOCLDY    47  40  76 W6        29.73R
CLARKSVILLE    CLOUDY    45  37  73 W14       29.74R
SMYRNA         CLOUDY    46  42  86 W9        29.75R
COOKEVILLE     CLOUDY    45  43  93 VRB6      29.71R
CROSSVILLE     CLOUDY    43  39  86 W14G22    29.69R
$$

TNZ061-075-076-078-094-096-097-242300-
SOUTH MIDDLE TENNESSEE

CITY           SKY/WX    TMP DP  RH WIND       PRES   REMARKS
FAYETTEVILLE   CLOUDY    45  41  87 MISG      29.76R
TULLAHOMA      CLOUDY    45  39  81 W5        29.75R
WINCHESTER     CLOUDY    45  41  87 W5        29.76R
MCMINNVILLE    CLOUDY    45  45 100 SW3       29.74R
COLUMBIA       CLOUDY    46  46 100 W6        29.74R
SHELBYVILLE    CLOUDY    46  43  87 W5        29.75R
$$

TNZ017-018-042-046-047-242300-
NORTHEAST TENNESSEE

CITY           SKY/WX    TMP DP  RH WIND       PRES   REMARKS
TRI CITIES     CLOUDY    64  55  72 S10       29.52F
ELIZABETHTON   CLEAR     63  52  67 VRB5      29.54S
$$

TNZ012-013-036-069-073-074-242300-
CENTRAL EAST TENNESSEE

CITY           SKY/WX    TMP DP  RH WIND       PRES   REMARKS
KNOXVILLE      RAIN      49  46  90 W18G28    29.63R FOG
OAK RIDGE      CLOUDY    50  43  77 W9G30     29.63R
GATLINBURG     MOCLDY    57  54  88 W18       29.59R
MORRISTOWN     PTCLDY    57  57 100 SW17      29.58R
$$

TNZ083-085-099-242300-
SOUTHEAST TENNESSEE

CITY           SKY/WX    TMP DP  RH WIND       PRES   REMARKS
CHATTANOOGA    CLOUDY    50  43  77 W16G25    29.72R
$$

SKY/WX REPORTED AS FAIR MEANS FEW OR NO CLOUDS BELOW
12 THOUSAND FEET.




USA.gov is the U.S. government's official web portal to all federal, state and local government web resources and services.